Find Starlink 31351

NORAD ID: 58972 Int'l Des: 2024-031 Owner: SPXS Country: US Constellation: starlink operational
LEOCIRCULAR

Live Position

Loading 3D Globe...

About Starlink 31351

Description loading...

Upcoming Passes

Passes for default location (London). Set your location on the main map for personalized predictions.

Altitude History

Loading altitude history...

Two-Line Element Set

1 58972U 24031H 26106.30744830 .00000321 00000-0 22973-4 0 9998
2 58972 53.1593 121.8897 0001233 77.2740 282.8399 15.30191094122280
Epoch: Apr 16, 2026 • Age: 10 hours

Current Status

Altitude 476.7 km
Velocity 7.63 km/s
Sub-Earth Point 30.91°N, 167.68°E
Launch Date Feb 15, 2024
Age 2.1 years
Type internet

Technical Details

Classification Payload
Mass 730.00 kg
Dry Mass 700.00 kg
Total Mass 730.00 kg
Length 0.30 m
Diameter 4.10 m
Span 29.00 m
Shape Box + pan
Manufacturer SPXS
Bus Type Starlink V2M
Phase Status In Orbit
Owner/State SPXS/US

Most Searched